S51UL-6 Weather Reports


Display with metric or nautical units.
time (UTC)temp
F
wind
direction
speed
MPH
gust
MPH
rain 1hr
in
rain 24hr
in
rain mn
in
humidity
%
barometer
mb
20260506164811 67 135 5.0 8.0 0.00 0.00 0.00 62 1009.3
20260506164311 67 158 5.0 8.0 0.00 0.00 0.00 62 1009.4
20260506163811 67 158 5.0 7.0 0.00 0.00 0.00 62 1009.5
20260506163313 67 158 3.0 5.0 0.00 0.00 0.00 61 1009.5
20260506161812 66 158 4.0 9.0 0.00 0.00 0.00 61 1009.7
20260506161312 66 158 5.0 9.0 0.00 0.00 0.00 61 1009.7
20260506160812 66 158 4.0 10.0 0.00 0.00 0.00 61 1009.5
20260506160312 66 158 6.0 10.0 0.00 0.00 0.00 61 1009.8
20260506155812 67 158 6.0 10.0 0.00 0.00 0.00 60 1009.8
20260506155313 67 135 6.0 8.0 0.00 0.00 0.00 60 1009.6
20260506154812 67 158 5.0 7.0 0.00 0.00 0.00 60 1009.7
20260506153812 67 180 6.0 13.0 0.00 0.00 0.00 59 1009.8
20260506153312 68 158 7.0 12.0 0.00 0.00 0.00 59 1009.7
20260506152313 68 203 2.0 6.0 0.00 0.00 0.00 58 1009.8
20260506151315 69 158 4.0 10.0 0.00 0.00 0.00 57 1010.0
20260506150313 69 158 0.0 1.0 0.00 0.00 0.00 56 1009.9
20260506145313 70 158 2.0 9.0 0.00 0.00 0.00 57 1010.0
20260506144313 70 158 6.0 14.0 0.00 0.00 0.00 55 1009.9
20260506143813 70 180 12.0 15.0 0.00 0.00 0.00 56 1009.9
20260506143313 71 180 9.0 15.0 0.00 0.00 0.00 54 1009.9
20260506142813 71 180 7.0 13.0 0.00 0.00 0.00 54 1010.1
20260506141813 72 158 7.0 14.0 0.00 0.00 0.00 53 1010.0
20260506141314 72 158 6.0 13.0 0.00 0.00 0.00 54 1010.1
20260506140313 72 180 7.0 13.0 0.00 0.00 0.00 55 1010.0
20260506135313 70 248 6.0 9.0 0.00 0.00 0.00 56 1010.3
20260506134813 70 158 2.0 7.0 0.00 0.00 0.00 57 1010.2
20260506133813 70 135 4.0 7.0 0.00 0.00 0.00 56 1010.4
20260506133314 70 180 5.0 6.0 0.00 0.00 0.00 56 1010.5
20260506132813 70 158 9.0 17.0 0.00 0.00 0.00 56 1010.2
20260506132313 70 158 9.0 17.0 0.00 0.00 0.00 56 1010.3
20260506131814 70 158 9.0 13.0 0.00 0.00 0.00 57 1010.4
20260506131314 69 158 11.0 16.0 0.00 0.00 0.00 56 1010.3
20260506130814 70 180 12.0 16.0 0.00 0.00 0.00 55 1010.4
20260506125314 71 158 8.0 10.0 0.00 0.00 0.00 54 1010.4
20260506124815 72 158 11.0 14.0 0.00 0.00 0.00 55 1010.5
20260506124315 71 158 10.0 14.0 0.00 0.00 0.00 55 1010.3
20260506123814 71 158 9.0 17.0 0.00 0.00 0.00 53 1010.4
20260506123315 72 158 9.0 17.0 0.00 0.00 0.00 52 1010.3
20260506122814 72 135 5.0 7.0 0.00 0.00 0.00 53 1010.1
20260506122316 72 158 7.0 10.0 0.00 0.00 0.00 52 1010.3
20260506121814 73 158 7.0 10.0 0.00 0.00 0.00 52 1010.4
20260506121316 73 158 6.0 8.0 0.00 0.00 0.00 52 1010.4
20260506120814 72 158 9.0 13.0 0.00 0.00 0.00 52 1010.4
20260506120314 73 135 11.0 13.0 0.00 0.00 0.00 51 1010.4
20260506115814 74 135 9.0 13.0 0.00 0.00 0.00 50 1010.5
20260506115315 74 135 8.0 12.0 0.00 0.00 0.00 51 1010.5
20260506114814 74 180 10.0 16.0 0.00 0.00 0.00 50 1010.5
20260506114315 74 135 9.0 16.0 0.00 0.00 0.00 51 1010.3
20260506113815 73 135 8.0 11.0 0.00 0.00 0.00 53 1010.4
20260506113316 73 158 9.0 13.0 0.00 0.00 0.00 53 1010.5
20260506112815 73 135 7.0 13.0 0.00 0.00 0.00 53 1010.6
20260506112315 72 158 7.0 9.0 0.00 0.00 0.00 55 1010.8
20260506111815 71 180 8.0 9.0 0.00 0.00 0.00 56 1010.8
20260506111318 70 158 3.0 9.0 0.00 0.00 0.00 58 1011.1
20260506110815 69 180 1.0 3.0 0.00 0.00 0.00 58 1010.9
20260506110316 69 180 1.0 6.0 0.00 0.00 0.00 58 1011.0
20260506105815 69 180 4.0 7.0 0.00 0.00 0.00 58 1010.9
20260506105315 69 180 4.0 7.0 0.00 0.00 0.00 57 1011.2
20260506104815 69 180 5.0 6.0 0.00 0.00 0.00 56 1011.0
20260506104315 69 158 6.0 9.0 0.00 0.00 0.00 56 1011.1
20260506102816 71 158 4.0 8.0 0.00 0.00 0.00 54 1011.1
20260506102316 70 158 4.0 6.0 0.00 0.00 0.00 56 1011.2
20260506100816 70 113 0.0 0.0 0.00 0.00 0.00 55 1011.4
20260506095316 70 293 0.0 0.0 0.00 0.00 0.00 54 1011.5
20260506094816 70 225 0.0 4.0 0.00 0.00 0.00 55 1011.4
20260506094316 70 158 2.0 5.0 0.00 0.00 0.00 55 1011.3
20260506093817 70 113 1.0 5.0 0.00 0.00 0.00 56 1011.0
20260506093316 69 113 2.0 6.0 0.00 0.00 0.00 55 1011.2
20260506092816 69 158 3.0 6.0 0.00 0.00 0.00 54 1011.2
20260506092316 70 225 0.0 0.0 0.00 0.00 0.00 55 1011.2
20260506091816 70 225 0.0 1.0 0.00 0.00 0.00 55 1011.2
20260506091319 70 225 0.0 1.0 0.00 0.00 0.00 54 1011.1
20260506090817 71 203 2.0 9.0 0.00 0.00 0.00 53 1011.1
20260506090316 71 248 2.0 9.0 0.00 0.00 0.00 52 1011.0
20260506085816 72 158 2.0 7.0 0.00 0.00 0.00 52 1011.2
20260506085318 73 158 4.0 7.0 0.00 0.00 0.00 51 1011.1
20260506084817 74 180 4.0 6.0 0.00 0.00 0.00 51 1011.1
20260506084316 73 68 3.0 6.0 0.00 0.00 0.00 52 1011.0
20260506083818 72 270 3.0 6.0 0.00 0.00 0.00 53 1011.1
20260506083317 71 180 4.0 8.0 0.00 0.00 0.00 53 1011.0
20260506082818 71 248 4.0 8.0 0.00 0.00 0.00 53 1010.8
20260506082317 70 135 3.0 6.0 0.00 0.00 0.00 55 1010.8
20260506081817 69 180 2.0 5.0 0.00 0.00 0.00 54 1010.9
20260506080817 70 225 2.0 8.0 0.00 0.00 0.00 53 1010.7
20260506080317 70 180 4.0 8.0 0.00 0.00 0.00 53 1010.7
20260506073319 68 135 1.0 5.0 0.00 0.00 0.00 64 1010.6
20260506072818 67 158 4.0 6.0 0.00 0.00 0.00 66 1010.5
20260506071318 65 158 1.0 4.0 0.00 0.00 0.00 69 1010.5
20260506070818 65 135 1.0 4.0 0.00 0.00 0.00 72 1010.5
20260506070318 64 158 0.0 2.0 0.00 0.00 0.00 73 1010.4
20260506061818 56 135 0.0 0.0 0.00 0.00 0.00 87 1011.0
20260506061320 56 135 0.0 0.0 0.00 0.00 0.00 88 1011.0
20260506060818 54 135 0.0 0.0 0.00 0.00 0.00 88 1011.1
20260506060320 53 23 0.0 0.0 0.00 0.00 0.00 88 1011.0
20260506051319 47 23 0.0 0.0 0.00 0.00 0.00 87 1010.9
20260506050319 45 23 0.0 0.0 0.00 0.00 0.00 87 1010.9
20260506044819 44 23 0.0 0.0 0.00 0.00 0.00 87 1010.9
20260506044320 44 23 0.0 0.0 0.00 0.00 0.00 87 1010.9
20260506043819 43 23 0.0 0.0 0.00 0.00 0.00 87 1010.7
20260506043319 43 23 0.0 0.0 0.00 0.00 0.00 87 1010.8
20260506042820 43 23 0.0 0.0 0.00 0.00 0.00 86 1010.8
20260506042319 43 23 0.0 0.0 0.00 0.00 0.00 86 1010.8
20260506041821 43 23 0.0 0.0 0.00 0.00 0.00 86 1010.7
20260506040820 43 23 0.0 0.0 0.00 0.00 0.00 86 1010.6
20260506040320 43 23 0.0 0.0 0.00 0.00 0.00 86 1010.5
20260506035820 43 23 0.0 0.0 0.00 0.00 0.00 86 1010.5
20260506034820 43 23 0.0 0.0 0.00 0.00 0.00 86 1010.4
20260506034320 43 23 0.0 0.0 0.00 0.00 0.00 86 1010.5
20260506032818 43 23 0.0 0.0 0.00 0.00 0.00 86 1010.4
20260506031820 43 23 0.0 0.0 0.00 0.00 0.00 86 1010.4
20260506031323 43 23 0.0 0.0 0.00 0.00 0.00 86 1010.5
20260506030320 44 23 0.0 0.0 0.00 0.00 0.00 85 1010.6
20260506025821 44 23 0.0 0.0 0.00 0.00 0.00 85 1010.5
20260506024819 44 23 0.0 0.0 0.00 0.00 0.00 86 1010.5
20260506024321 44 23 0.0 0.0 0.00 0.00 0.00 85 1010.5
20260506023819 44 23 0.0 0.0 0.00 0.00 0.00 85 1010.3
20260506023322 44 23 0.0 0.0 0.00 0.00 0.00 85 1010.4
20260506022821 45 23 0.0 0.0 0.00 0.00 0.00 85 1010.3
20260506021821 45 23 0.0 0.0 0.00 0.00 0.00 85 1010.2
20260506021322 45 23 0.0 0.0 0.00 0.00 0.00 85 1010.3
20260506020819 45 23 0.0 0.0 0.00 0.00 0.00 85 1010.2
20260506020319 46 23 0.0 0.0 0.00 0.00 0.00 85 1010.3
20260506015819 46 23 0.0 0.0 0.00 0.00 0.00 85 1010.1
20260506014820 45 23 0.0 0.0 0.00 0.00 0.00 85 1010.2
20260506013820 46 23 0.0 0.0 0.00 0.00 0.00 85 1010.1
20260506013322 46 23 0.0 0.0 0.00 0.00 0.00 85 1010.1
20260506012823 46 0 0.0 0.0 0.00 0.00 0.00 84 1010.1
20260506012322 46 0 0.0 0.0 0.00 0.00 0.00 84 1010.0
20260506010822 47 0 0.0 0.0 0.00 0.00 0.00 84 1010.0
20260506010322 47 0 0.0 0.0 0.00 0.00 0.00 84 1009.8
20260506005822 47 0 0.0 0.0 0.00 0.00 0.00 84 1010.0
20260506005322 47 0 0.0 0.0 0.00 0.00 0.00 84 1009.7
20260506004823 47 23 0.0 0.0 0.00 0.00 0.00 84 1010.0
20260506003822 47 23 0.0 0.0 0.00 0.00 0.00 84 1010.0
20260506002822 48 23 0.0 0.0 0.00 0.00 0.00 84 1009.8
20260506002323 48 23 0.0 0.0 0.00 0.00 0.00 84 1009.9
20260506001823 48 315 0.0 0.0 0.00 0.00 0.00 84 1010.0
20260506000822 48 315 0.0 0.0 0.00 0.00 0.00 83 1010.0
20260506000323 48 23 0.0 0.0 0.00 0.00 0.00 82 1010.1
20260505235823 48 23 0.0 0.0 0.00 0.00 0.00 82 1010.0
20260505235323 49 23 0.0 0.0 0.00 0.00 0.00 82 1010.0
20260505234823 49 0 0.0 0.0 0.00 0.00 0.00 82 1010.1
20260505233823 49 0 0.0 0.0 0.00 0.00 0.00 81 1010.2
20260505233323 49 0 0.0 0.0 0.00 0.00 0.00 81 1010.1
20260505232824 49 0 0.0 0.0 0.00 0.00 0.00 81 1010.2
20260505232323 49 23 0.0 0.0 0.00 0.00 0.00 80 1010.2
20260505231823 49 23 0.0 0.0 0.00 0.00 0.00 80 1010.1
20260505230824 50 338 0.0 0.0 0.00 0.00 0.00 79 1010.2
20260505230323 50 338 0.0 0.0 0.00 0.00 0.00 79 1010.2
20260505224824 51 23 0.0 0.0 0.00 0.00 0.00 78 1010.3
20260505223323 51 338 0.0 0.0 0.00 0.00 0.00 78 1010.4
20260505222824 51 338 0.0 0.0 0.00 0.00 0.00 78 1010.3
20260505222324 51 338 0.0 0.0 0.00 0.00 0.00 78 1010.3
20260505221824 51 338 0.0 0.0 0.00 0.00 0.00 78 1010.4
20260505221326 51 338 0.0 0.0 0.00 0.00 0.00 77 1010.3
20260505220824 51 23 0.0 0.0 0.00 0.00 0.00 77 1010.4
20260505220324 52 23 0.0 0.0 0.00 0.00 0.00 76 1010.4
20260505215324 52 68 0.0 0.0 0.00 0.00 0.00 75 1010.3
20260505214824 53 68 0.0 0.0 0.00 0.00 0.00 74 1010.4
20260505214324 53 68 0.0 0.0 0.00 0.00 0.00 74 1010.2
20260505213825 53 23 0.0 0.0 0.00 0.00 0.00 74 1010.1
20260505213324 54 23 0.0 0.0 0.00 0.00 0.00 74 1010.3
20260505212824 54 23 0.0 0.0 0.00 0.00 0.00 74 1010.3
20260505212326 54 23 0.0 0.0 0.00 0.00 0.00 73 1010.4
20260505211824 55 23 0.0 0.0 0.00 0.00 0.00 73 1010.5
20260505210826 55 203 0.0 0.0 0.00 0.00 0.00 72 1010.5
20260505210324 55 203 0.0 0.0 0.00 0.00 0.00 72 1010.4
20260505205825 55 203 0.0 0.0 0.00 0.00 0.00 72 1010.6
20260505205325 55 158 0.0 0.0 0.00 0.00 0.00 73 1010.6
20260505204325 55 158 0.0 0.0 0.00 0.00 0.00 70 1010.4
20260505203826 56 158 0.0 0.0 0.00 0.00 0.00 70 1010.7
20260505203325 56 158 0.0 0.0 0.00 0.00 0.00 70 1010.6
20260505202825 56 158 0.0 0.0 0.00 0.00 0.00 70 1010.6
20260505202325 57 158 0.0 0.0 0.00 0.00 0.00 70 1010.5
20260505201825 57 135 1.0 3.0 0.00 0.00 0.00 71 1010.6
20260505201325 57 135 1.0 3.0 0.00 0.00 0.00 70 1010.6
20260505200825 57 180 0.0 2.0 0.00 0.00 0.00 70 1010.4
20260505195913 58 135 0.0 0.0 0.00 0.00 0.00 68 1010.5
20260505195825 58 135 0.0 0.0 0.00 0.00 0.00 68 1010.5
20260505195326 58 135 0.0 0.0 0.00 0.00 0.00 68 1010.5
20260505194826 58 158 0.0 5.0 0.00 0.00 0.00 68 1010.6
20260505194326 58 158 1.0 5.0 0.00 0.00 0.00 68 1010.5
20260505193825 58 158 0.0 0.0 0.00 0.00 0.00 68 1010.7
20260505193326 59 158 0.0 0.0 0.00 0.00 0.00 67 1010.8
20260505192826 59 135 0.0 2.0 0.00 0.00 0.00 67 1010.7
20260505192326 59 135 3.0 6.0 0.00 0.00 0.00 67 1010.8
20260505191826 60 180 5.0 8.0 0.00 0.00 0.00 67 1010.8
20260505191327 59 158 6.0 8.0 0.00 0.00 0.00 67 1010.8
20260505190826 60 158 5.0 8.0 0.00 0.00 0.00 67 1010.7
20260505190326 59 158 3.0 5.0 0.00 0.00 0.00 67 1010.6
20260505185826 59 203 4.0 5.0 0.00 0.00 0.00 66 1010.8
20260505185327 59 135 3.0 5.0 0.00 0.00 0.00 65 1010.8
20260505184826 60 135 3.0 5.0 0.00 0.00 0.00 65 1010.7
20260505184326 60 135 1.0 4.0 0.00 0.00 0.00 64 1010.7
20260505183826 60 158 0.0 0.0 0.00 0.00 0.00 63 1010.8
20260505183326 60 158 2.0 6.0 0.00 0.00 0.00 63 1010.8
20260505182826 60 158 5.0 6.0 0.00 0.00 0.00 63 1010.7
20260505182326 61 180 5.0 7.0 0.00 0.00 0.00 63 1010.4
20260505181826 61 158 4.0 7.0 0.00 0.00 0.00 63 1010.7
20260505180827 61 135 6.0 8.0 0.00 0.00 0.00 62 1010.6
20260505175827 61 158 8.0 13.0 0.00 0.00 0.00 62 1010.8
20260505175327 62 158 7.0 10.0 0.00 0.00 0.00 61 1010.8
20260505174827 62 158 4.0 7.0 0.00 0.00 0.00 61 1010.9
20260505174327 62 180 5.0 7.0 0.00 0.00 0.00 60 1010.9
20260505173827 62 158 5.0 7.0 0.00 0.00 0.00 60 1010.9
20260505173327 62 158 6.0 7.0 0.00 0.00 0.00 59 1010.9
20260505172827 63 158 5.0 6.0 0.00 0.00 0.00 59 1011.0
20260505172327 63 158 6.0 9.0 0.00 0.00 0.00 58 1011.2
20260505171828 64 158 6.0 11.0 0.00 0.00 0.00 58 1010.9
20260505171327 64 158 8.0 13.0 0.00 0.00 0.00 57 1010.9
20260505170827 64 135 9.0 13.0 0.00 0.00 0.00 57 1011.2
20260505170327 64 158 8.0 11.0 0.00 0.00 0.00 57 1011.2
20260505165827 65 158 8.0 10.0 0.00 0.00 0.00 57 1011.2
20260505165327 65 158 6.0 9.0 0.00 0.00 0.00 56 1011.3